STARLINK-4722, 53775

Orbit data source: Space-Track

STARLINK-4722, 53775 is a payload satellite owned by SpaceX/Seattle (US) in LEO that was launched on Sun, 11 Sep 2022 UTC via an FALCON 9 launch vehicle from the Air Force Eastern Test Range (AFETR). Payload-class satellites include a variety of spacecraft equipped with specific instruments for various scientific and technological missions. These include communications satellites like Starlink; space stations such as the ISS; scientific satellites like the Hubble; Earth observation satellites from companies like Planet Labs, Umbra, and HawkEye 360; GPS; miniature CubeSats for education and research; and military/defense satellites.

Loading next visibility...
Identifier
53775, 2022-111C
Orbit
LEO
Country
Flag of USUS
Related business
Manufacturer
SpaceX/Seattle
Mission
Operational Commercial Communications
Bus & Motor
STARLINK, Unknown motor
Mass
305 kg wet, ~290 kg dry
Launch date (UTC)
2022-09-11 (3 years ago)
Launch vehicle
FALCON 9
Launch site
Air Force Eastern Test Range (AFETR)
Object type
Payload
Rocket body
Debris
Shape & HBR
Box + 1 Pan, 10.1 m
Radar Cross Section
13.562 m², Large (>1 m²)

Expand to show TLE details & history
Last TLE update: 5 hours ago

TLE from 5 hours ago
0 STARLINK-4722
1 53775U 22111C   26035.50866498 -.00000254  00000-0  21282-5 0  9998
2 53775  53.2180  63.3105 0001239  92.1346 267.9788 15.08822202188684
Epoch: 2026-02-04T12:12Z
TLE epoch observation values (Epoch: 2026-02-04T12:12:28.654Z)
Latitude
-0.00002°
Longitude
105.51686°
Altitude
540.726 km
Speed
7.593 km/s
True Right ascension
04h 13m 14s
True Declination
0° 00' 00"
Sunlit
Object was in daylight at epoch
Visualization orbit readout
Latitude
Unknown
Longitude
Unknown
Altitude
Unknown
Speed
Unknown
Apparent Right ascension
Unknown
Apparent Declination
Unknown
Sunlit
N/A
Visualization observer readout
Local Sidereal Time
18:43:36
Azimuth
Unknown
Elevation
Unknown
Doppler factor
Unknown
Orbital elements
Apogee altitude
540.9 km
Perigee altitude
539.185 km
Semi-major axis
6,918.18 km
Eccentricity
0.00012
Inclination
53.218°
RAAN
63.3105°
Arg. of periapsis
92.1346°
True anomaly
267.96461°
Mean anomaly
267.9788°
Eccentric anomaly
267.97171°
Mean motion
3.77186 °/min
Orbital period
95.44 mins
BSTAR
0.0000021282
Loading maneuver chart data...
Computing Atmospheric mass density...
Loading historical data...
Loading historical data...
Loading historical data...
Loading historical data...
Loading historical data...
Loading historical data...
Loading historical data...

Documentation

Showing up to 5 results
|